Location: Winthrop
(48.4780°N, 120.1850°W)
Time: 17:13:26
(UTC-07:00)

Explorer 7 - Pass Details

Date: 05 February 2023
Orbit: 478 x 657 km, 50.3° (Epoch: 30 March)

Event Time Altitude Azimuth Distance (km) Brightness Sun altitude
Rises 11:16:10 0° 228° (SW) 2,628 10.6 24.4°
Reaches altitude 10° 11:18:22 10° 222° (SW) 1,772 10.0 24.5°
Maximum altitude 11:22:13 45° 149° (SSE) 759 9.0 24.6°
Drops below altitude 10° 11:26:19 10° 77° (ENE) 1,890 9.6 24.8°
Sets 11:28:44 0° 71° (ENE) 2,826 10.4 24.9°
